Vorticity
nan nan nan nan nan nan nan nan nan nan nan nan nan nan nan nan nan nan nan nan nan nan nan nan nan nan nan nan nan nan nan nan nan nan nan nan nan nan nan nan nan nan nan nan
nan 7 4 7 13 8 4 4 5 5 14 7 12 8 10 10 12 10 9 10 14 10 9 10 11 10 11 8 8 11 12 10 6 9 7 8 9 8 10 10 9 7 8 nan
nan 8 9 6 5 8 9 7 6 1 2 7 16 15 13 12 9 10 14 13 11 9 7 8 11 10 10 12 12 11 12 10 9 9 8 8 8 9 8 9 12 12 11 nan
nan 8 8 13 11 8 3 11 9 4 7 14 3 13 6 11 7 8 8 8 6 8 10 10 9 13 9 9 11 12 12 10 10 8 10 8 5 7 8 9 10 11 10 nan
nan 6 15 14 9 9 11 13 9 7 15 11 3 12 20 12 11 12 10 9 8 9 7 10 17 15 12 12 10 9 9 7 9 10 9 6 8 9 10 11 11 8 9 nan
nan 6 5 7 9 7 17 19 11 11 12 13 19 3 11 11 10 9 7 7 9 10 13 17 18 15 12 10 11 10 8 7 9 10 10 10 9 8 9 10 8 8 8 nan
nan 15 15 12 11 11 11 13 15 15 14 15 8 6 3 4 10 2 3 4 12 15 18 17 13 9 9 10 8 9 9 8 9 9 10 10 10 9 8 7 8 7 6 nan
nan 14 10 7 16 20 12 5 9 6 -2 16 11 8 14 5 0 7 7 14 15 14 12 11 10 11 11 7 7 10 9 9 9 8 8 9 9 9 9 10 9 8 8 nan
nan 9 2 7 13 10 13 11 5 5 8 11 12 8 12 14 13 18 15 18 10 9 10 9 9 10 8 8 10 8 7 9 8 7 7 9 10 11 10 10 10 9 9 nan
nan 12 7 7 13 13 10 10 10 13 16 4 10 12 9 9 13 14 23 12 9 10 10 8 9 7 7 9 8 8 10 9 7 8 9 9 8 8 9 9 9 9 9 nan
nan 12 6 10 10 2 6 13 10 10 10 6 8 11 7 6 5 14 26 15 10 8 7 8 8 8 9 8 8 8 8 8 8 8 8 9 8 8 9 9 9 8 8 nan
nan 10 11 9 9 10 9 13 11 5 7 6 8 9 9 10 13 26 23 9 8 10 10 9 9 9 8 7 8 8 8 9 8 8 9 8 9 9 9 9 9 9 9 nan
nan 9 7 12 16 15 9 5 6 13 15 10 1 5 4 -1 9 31 21 9 9 10 10 8 9 9 8 7 7 8 8 8 8 9 10 10 8 8 9 9 8 8 8 nan
nan 12 9 3 -3 3 7 0 6 10 11 20 8 4 4 -3 10 21 15 13 11 9 8 7 8 9 9 8 8 7 8 9 8 9 9 9 9 9 9 9 9 8 6 nan
nan 8 8 4 4 6 6 6 7 6 4 7 6 5 13 18 23 20 9 9 10 9 7 8 8 8 8 8 8 8 8 8 10 10 10 9 9 10 9 9 9 8 8 nan
nan 6 7 11 21 23 14 10 8 9 10 12 6 13 6 18 28 19 14 8 8 8 8 8 8 8 8 7 8 7 8 9 10 11 10 10 9 9 9 9 9 9 11 nan
nan 7 8 8 19 25 18 18 14 15 11 9 11 5 8 12 12 22 19 9 9 8 8 9 8 7 8 8 8 8 9 11 11 11 10 8 9 10 10 10 9 11 11 nan
nan 10 7 10 17 9 5 11 28 23 5 3 9 16 16 11 9 3 16 19 11 8 8 8 8 9 9 8 7 11 11 10 11 10 8 7 10 9 10 11 10 8 10 nan
nan 3 8 12 11 9 6 -1 7 13 14 4 19 26 8 9 9 4 10 16 21 13 9 9 9 8 11 10 10 10 8 9 10 10 9 9 9 9 10 10 9 8 9 nan
nan 14 2 4 11 10 4 -4 2 15 13 -2 8 12 10 14 7 9 7 11 11 14 16 14 11 10 8 9 13 9 7 8 10 11 10 9 8 10 10 11 8 8 11 nan
nan 14 14 6 8 6 -1 6 27 17 -3 4 10 12 19 14 11 9 8 11 12 17 17 13 13 10 7 9 11 7 8 9 11 11 9 8 10 10 9 8 9 11 11 nan
nan 12 14 13 11 4 1 22 20 9 5 7 13 15 17 8 16 14 14 10 9 21 23 10 9 9 9 11 10 8 6 10 14 12 8 8 10 10 11 9 9 11 11 nan
nan 13 10 10 14 13 10 9 7 10 13 8 9 24 14 10 14 13 14 12 11 22 20 10 10 10 9 10 10 9 7 11 14 11 9 10 10 11 10 9 9 9 9 nan
nan 11 14 8 4 5 12 10 9 9 8 17 20 20 9 12 12 11 10 11 13 18 18 15 14 10 6 9 13 8 10 14 13 8 8 9 8 8 9 10 10 10 8 nan
nan 6 11 10 6 8 4 6 8 11 7 14 24 14 10 10 12 10 8 9 10 13 21 22 11 11 9 8 10 10 12 13 12 9 8 7 8 9 6 9 13 13 12 nan
nan nan nan nan nan nan nan nan nan nan nan nan nan nan nan nan nan nan nan nan nan nan nan nan nan nan nan nan nan nan nan nan nan nan nan nan nan nan nan nan nan nan nan nan
CAPE
0 0 0 0 0 0 0 0 0 0 0 0 0 0 0 0 0 0 0 0 0 0 0 0 0 0 0 0 0 9 790 871 1065 936 1184 900 525 248 94 119 293 388 373 364
0 0 0 0 0 0 0 0 0 0 0 0 0 0 0 0 0 0 0 0 0 0 0 0 0 0 0 0 69 93 821 1238 1394 1298 1199 756 439 201 155 107 134 228 259 312
0 0 0 0 0 0 0 0 0 0 0 0 0 0 0 0 0 0 0 0 0 0 0 0 0 0 0 27 436 874 1315 1455 1365 1053 614 257 156 75 104 102 108 146 161 108
0 0 0 0 0 0 0 0 0 0 0 0 0 0 0 0 0 0 0 0 0 0 0 0 0 0 4 200 847 1486 1287 1362 1222 1107 602 573 252 236 105 118 74 98 192 174
0 0 0 0 0 0 0 0 0 0 0 0 0 0 0 0 0 0 0 0 0 0 0 0 0 0 90 581 1061 1419 1320 1404 1032 780 461 295 232 69 30 72 138 59 34 88
0 0 0 0 0 0 0 0 0 0 0 0 0 0 0 0 0 0 0 0 0 0 0 0 14 278 431 716 1318 1318 1262 971 669 435 142 109 194 67 119 75 106 0 0 0
1 6 0 0 0 0 0 0 0 0 0 0 0 0 0 0 0 0 0 0 0 0 0 211 336 481 735 1156 1224 854 834 622 380 52 9 13 36 8 54 46 14 0 1 2
0 1 0 8 0 0 0 0 0 0 0 0 0 0 0 0 0 0 0 0 0 91 150 214 388 633 950 1050 890 488 408 377 48 102 0 0 0 0 0 1 0 0 0 0
30 23 1 0 0 0 0 0 0 0 0 0 0 0 0 0 0 0 0 0 112 125 203 284 507 758 813 581 517 217 222 93 23 38 0 0 0 0 0 0 0 0 0 0
0 0 0 0 0 0 0 0 0 0 0 0 0 0 0 0 0 0 0 2 140 183 207 324 537 629 438 349 187 63 91 0 84 12 1 1 0 0 0 0 0 0 0 0
0 0 0 0 0 0 0 0 0 0 0 0 0 0 0 0 0 0 0 50 195 235 185 355 534 401 290 287 129 56 70 33 79 14 7 34 22 0 0 0 0 0 0 0
4 2 0 0 0 0 0 0 0 0 0 0 0 0 0 0 0 0 10 218 172 132 182 411 412 341 357 261 129 75 54 37 51 4 1 13 1 0 0 0 0 0 0 0
6 0 0 0 0 7 0 3 0 0 0 0 0 0 0 0 0 0 70 119 165 100 379 371 346 425 311 242 161 59 67 3 44 38 31 62 11 0 0 0 0 0 0 0
30 0 0 0 0 0 0 0 0 0 0 0 0 0 0 0 0 63 82 178 192 361 400 315 367 279 292 243 174 37 8 0 97 124 142 59 2 0 0 0 0 0 0 9
5 4 0 0 0 2 6 0 0 0 0 0 0 0 0 0 0 118 142 169 262 391 334 262 228 224 196 140 96 7 0 0 90 97 201 90 9 1 0 0 0 12 13 9
3 0 40 4 0 0 0 0 0 0 0 0 0 0 0 157 27 114 198 220 316 344 300 215 212 219 139 104 28 0 0 0 82 148 225 124 74 2 7 0 0 3 6 6
6 1 15 3 32 58 0 0 0 0 0 0 0 0 0 235 223 0 220 290 312 341 285 248 217 203 145 72 0 0 0 3 96 252 438 289 61 14 16 11 0 1 25 11
0 0 22 9 8 0 0 46 44 1 0 0 4 0 0 0 46 5 1 208 315 307 284 253 216 162 76 0 0 0 0 27 123 256 549 150 0 0 5 3 0 2 2 7
0 0 16 16 0 5 127 1 9 33 74 107 16 67 28 4 2 0 0 2 175 298 267 188 183 67 0 0 0 0 0 14 63 207 240 53 0 0 6 8 0 0 0 0
1 0 8 20 10 0 19 2 1 6 42 29 1 13 21 14 4 0 0 0 0 55 84 168 89 0 0 0 0 0 0 0 46 154 30 3 0 0 19 11 0 0 0 0
4 23 0 6 0 0 7 2 2 70 82 4 1 0 33 11 1 0 0 10 6 19 81 116 8 0 0 0 0 0 0 0 8 30 14 0 0 2 0 0 0 1 0 7
13 8 14 36 4 0 6 7 10 22 12 5 0 0 55 10 1 0 0 2 24 27 136 91 0 0 0 0 0 0 0 0 0 1 0 0 0 12 0 0 0 6 0 0
17 13 5 5 3 7 9 27 5 4 5 2 1 0 0 0 0 0 0 0 0 44 183 12 0 0 0 0 0 0 0 0 0 0 0 0 44 0 0 0 0 0 0 0
12 13 0 8 20 17 16 0 6 9 1 3 0 0 0 0 0 0 0 0 0 46 265 39 0 0 0 0 0 0 0 0 0 1 0 0 10 0 0 0 0 2 1 0
10 9 8 5 11 17 24 13 3 0 0 0 0 0 0 0 0 0 0 0 0 0 15 117 0 0 0 0 0 0 0 0 10 18 2 0 0 0 0 0 0 3 1 1
2 6 1 11 2 1 2 9 3 0 0 0 0 0 0 0 0 0 0 0 0 0 0 38 0 0 0 0 0 0 0 0 13 5 49 20 0 0 0 0 0 0 0 0